Location: Unspecified
(0.0000°N, 0.0000°E)
Time: 02:07:21
(UTC+00:00)

Vanguard 1 Rocket - Pass Details

Date: 04 December 2022
Orbit: 651 x 4224 km, 34.3° (Epoch: 07 February)

Event Time Altitude Azimuth Distance (km) Brightness Sun altitude
Rises 22:44:51 0° 228° (SW) 7,735 12.5 -62.6°
Reaches altitude 10° 22:51:00 10° 225° (SW) 6,225 11.9 -63.4°
Enters shadow 23:00:36 33° 212° (SSW) 3,681 10.4 -64.6°
